Skip Page Navigation
NASA JPL Caltech
NASA Logo - Jet Propulsion Laboratory + View the NASA Portal
+ Center for Near-Earth Object Studies
JPL Home Earth Solar System Stars & Galaxies Technology
JPL Solar System Dynamics
BODIES ORBITS EPHEMERIDES TOOLS PHYSICAL DATA DISCOVERY FAQ SITE MAP
IMPORTANT: The SSD Announcement email list is now available. Major changes are coming in the near future, including possible hostname and/or URL changes. To be notified of such changes, subscribe to this email list.

Please visit this page for more details.


JPL Small-Body Database Browser
Search: [ help ]  
136154 (2003 TX14)
Classification: Main-belt Asteroid          SPK-ID: 2136154
Ephemeris | Orbit Diagram | Orbital Elements | Mission Design | Physical Parameters | Discovery Circumstances ]

[ show orbit diagram ]
Orbital Elements at Epoch 2458600.5 (2019-Apr-27.0) TDB
Reference: JPL 15 (heliocentric ecliptic J2000)
 Element Value Uncertainty (1-sigma)   Units 
e .1438071236696973 4.8411e-08  
a 2.222051206515219 8.9756e-09 au
q 1.902504413859485 1.1118e-07 au
i 6.688593457989605 4.8484e-06 deg
node 159.6002571001131 3.4669e-05 deg
peri 157.8063475219133 3.764e-05 deg
M 301.4166847167218 1.5e-05 deg
tp 2458797.379712103305
(2019-Nov-09.87971210)
5.0736e-05 TDB
period 1209.844407310633
3.31
7.3304e-06
2.007e-08
d
yr
n .2975589239613423 1.8029e-09 deg/d
Q 2.541597999170953 1.0266e-08 au
  Orbit Determination Parameters
   # obs. used (total)      479  
   data-arc span      6839 days (18.72 yr)  
   first obs. used      2000-11-27  
   last obs. used      2019-08-19  
   planetary ephem.      DE431  
   SB-pert. ephem.      SB431-N16  
   condition code      0  
   norm. resid. RMS      .60144  
   source      ORB  
   producer      Otto Matic  
   solution date      2019-Sep-24 03:27:51  

Additional Information
 Earth MOID = .890537 au 
 Jupiter MOID = 2.74232 au 
 T_jup = 3.626 
[ show covariance matrix ]

Ephemeris | Orbit Diagram | Orbital Elements | Mission Design | Physical Parameters | Discovery Circumstances ]

Physical Parameter Table
Parameter Symbol Value Units Sigma Reference Notes
absolute magnitude H 16.7   n/a MPO436669  

136154 (2003 TX14)          Discovered 2003-Oct-14 by LONEOS at Anderson Mesa
Reference: 20060907/Numbers.arcLast Updated: 2006-09-10

Alternate Designations
 2003 TX14 = 2000 WE104 
Ephemeris | Orbit Diagram | Orbital Elements | Mission Design | Physical Parameters | Discovery Circumstances ]
ABOUT SSD CREDITS/AWARDS PRIVACY/COPYRIGHT GLOSSARY LINKS
FirstGov
(server date/time)  
NASA Home Page
Site Manager:   Ryan S. Park
Webmaster  Alan B. Chamberlin